This is the latest recevied weather packets stored in our database for station/object KC9Q. If no packets are shown the sender has not sent any weather packets the latest 10 day(s).
| Time | Temp. | Humidity | Pressure | Rain* | Wind** | Luminosity | Snow |
|---|---|---|---|---|---|---|---|
| 1777745734 | 16.67° C | 40% | 1016.6 hPa | 0 mm | - | 242 W/m² | - |
| 1777745432 | 17.22° C | 40% | 1016.5 hPa | 0 mm | - | 245 W/m² | - |
| 1777745129 | 17.78° C | 39% | 1016.4 hPa | 0 mm | - | 535 W/m² | - |
| 1777744825 | 17.78° C | 37% | 1016.6 hPa | 0 mm | - | 279 W/m² | - |
| 1777744519 | 17.78° C | 39% | 1016.6 hPa | 0 mm | - | 1074 W/m² | - |
| 1777744216 | 18.33° C | 36% | 1016.6 hPa | 0 mm | - | 208 W/m² | - |
| 1777743913 | 17.78° C | 37% | 1016.7 hPa | 0 mm | - | 1050 W/m² | - |
| 1777743609 | 18.33° C | 38% | 1016.6 hPa | 0 mm | - | 1079 W/m² | - |
| 1777743307 | 17.78° C | 35% | 1016.7 hPa | 0 mm | - | 1025 W/m² | - |
| 1777743005 | 18.33° C | 37% | 1016.7 hPa | 0 mm | - | 1055 W/m² | - |
| 1777742702 | 18.33° C | 36% | 1016.7 hPa | 0 mm | - | 1036 W/m² | - |
| 1777742398 | 18.33° C | 40% | 1016.7 hPa | 0 mm | - | 1033 W/m² | - |
| 1777742094 | 17.78° C | 41% | 1016.9 hPa | 0 mm | - | 1035 W/m² | - |
| 1777741792 | 17.78° C | 40% | 1016.7 hPa | 0 mm | - | 1074 W/m² | - |
| 1777741488 | 18.33° C | 40% | 1016.8 hPa | 0 mm | - | 1035 W/m² | - |
| 1777741184 | 17.78° C | 45% | 1016.7 hPa | 0 mm | - | 1030 W/m² | - |
| 1777740882 | 17.78° C | 39% | 1016.8 hPa | 0 mm | - | 1003 W/m² | - |
| 1777740578 | 18.33° C | 40% | 1016.7 hPa | 0 mm | - | 240 W/m² | - |
| 1777740274 | 18.33° C | 39% | 1016.8 hPa | 0 mm | - | 966 W/m² | - |
| 1777739971 | 18.33° C | 41% | 1016.7 hPa | 0 mm | - | 948 W/m² | - |
| 1777739667 | 18.33° C | 42% | 1016.7 hPa | 0 mm | - | 941 W/m² | - |
| 1777739365 | 18.33° C | 40% | 1016.7 hPa | 0 mm | - | 929 W/m² | - |
| 1777739062 | 18.33° C | 40% | 1016.7 hPa | 0 mm | - | 925 W/m² | - |
| 1777738759 | 17.78° C | 44% | 1016.7 hPa | 0 mm | - | 922 W/m² | - |
| 1777738455 | 17.78° C | 43% | 1016.7 hPa | 0 mm | - | 660 W/m² | - |
* Rain latest hour (hover to see other rain measurements)
** Current wind speed in m/s (hover to see current wind gust speed)